| time (UTC) | temp C | wind direction | speed KPH | gust KPH | rain 1hr cm | rain 24hr cm | rain mn cm | humidity % | barometer mb |
| 20260906224557 | 16 | 10 | 1.6 | 9.7 | 0.00 | 0.13 | 0.05 | 83 | 1011.2 |
| 20260906223057 | 16 | 349 | 0.0 | 8.0 | 0.00 | 0.13 | 0.05 | 83 | 1011.2 |
| 20260906221552 | 15 | 14 | 0.0 | 8.0 | 0.00 | 0.13 | 0.05 | 84 | 1011.1 |
| 20260906220051 | 15 | 22 | 0.0 | 12.9 | 0.00 | 0.13 | 0.05 | 84 | 1011.1 |
| 20260906214550 | 15 | 20 | 4.8 | 12.9 | 0.00 | 0.13 | 0.05 | 83 | 1011.1 |
| 20260906213056 | 15 | 25 | 8.0 | 14.5 | 0.00 | 0.13 | 0.05 | 83 | 1011.0 |
| 20260906211550 | 15 | 27 | 1.6 | 17.7 | 0.00 | 0.13 | 0.05 | 83 | 1011.0 |
| 20260906210050 | 15 | 22 | 9.7 | 14.5 | 0.00 | 0.13 | 0.05 | 81 | 1011.1 |
| 20260906204555 | 16 | 17 | 0.0 | 14.5 | 0.00 | 0.13 | 0.05 | 82 | 1011.2 |
| 20260906203048 | 15 | 331 | 0.0 | 14.5 | 0.00 | 0.13 | 0.05 | 82 | 1011.1 |
| 20260906201613 | 15 | 26 | 3.2 | 16.1 | 0.00 | 0.13 | 0.05 | 81 | 1011.2 |
| 20260906200051 | 15 | 20 | 3.2 | 12.9 | 0.00 | 0.13 | 0.05 | 81 | 1011.3 |
| 20260906194556 | 16 | 23 | 4.8 | 17.7 | 0.00 | 0.13 | 0.05 | 78 | 1011.2 |
| 20260906193047 | 16 | 10 | 4.8 | 19.3 | 0.00 | 0.13 | 0.05 | 78 | 1011.2 |
| 20260906191545 | 16 | 22 | 1.6 | 22.5 | 0.00 | 0.13 | 0.05 | 80 | 1011.0 |
| 20260906190043 | 15 | 23 | 14.5 | 24.1 | 0.00 | 0.13 | 0.05 | 79 | 1010.9 |
| 20260906184540 | 15 | 18 | 11.3 | 20.9 | 0.00 | 0.13 | 0.05 | 79 | 1011.2 |
| 20260906183038 | 15 | 31 | 12.9 | 22.5 | 0.00 | 0.13 | 0.05 | 81 | 1011.7 |
| 20260906181543 | 15 | 19 | 3.2 | 14.5 | 0.00 | 0.13 | 0.05 | 84 | 1011.8 |
| 20260906180036 | 13 | 16 | 0.0 | 19.3 | 0.00 | 0.13 | 0.05 | 86 | 1012.2 |
| 20260906174528 | 12 | 5 | 0.0 | 8.0 | 0.03 | 0.13 | 0.05 | 86 | 1012.9 |
| 20260906173028 | 12 | 360 | 0.0 | 16.1 | 0.03 | 0.13 | 0.05 | 87 | 1013.0 |
| 20260906171527 | 12 | 360 | 0.0 | 9.7 | 0.03 | 0.13 | 0.05 | 87 | 1013.2 |
| 20260906170026 | 13 | 10 | 1.6 | 9.7 | 0.00 | 0.10 | 0.03 | 87 | 1013.3 |
| 20260906164526 | 12 | 14 | 0.0 | 9.7 | 0.00 | 0.10 | 0.03 | 87 | 1013.1 |
| 20260906163042 | 12 | 18 | 3.2 | 16.1 | 0.00 | 0.10 | 0.03 | 87 | 1013.0 |
| 20260906161526 | 12 | 18 | 0.0 | 9.7 | 0.00 | 0.10 | 0.03 | 87 | 1013.1 |
| 20260906160025 | 12 | 334 | 0.0 | 9.7 | 0.00 | 0.10 | 0.03 | 87 | 1013.2 |
| 20260906154521 | 12 | 360 | 0.0 | 12.9 | 0.00 | 0.10 | 0.03 | 86 | 1013.4 |
| 20260906153020 | 13 | 290 | 3.2 | 20.9 | 0.00 | 0.10 | 0.03 | 85 | 1013.5 |
| 20260906151519 | 13 | 307 | 8.0 | 24.1 | 0.00 | 0.10 | 0.03 | 87 | 1013.5 |
| 20260906150025 | 13 | 10 | 1.6 | 20.9 | 0.00 | 0.15 | 0.03 | 87 | 1013.6 |
| 20260906144514 | 13 | 350 | 0.0 | 6.4 | 0.00 | 0.15 | 0.03 | 87 | 1013.5 |
| 20260906143011 | 13 | 349 | 0.0 | 0.0 | 0.00 | 0.15 | 0.03 | 87 | 1013.6 |
| 20260906141512 | 13 | 349 | 0.0 | 12.9 | 0.00 | 0.15 | 0.03 | 87 | 1013.4 |
| 20260906140017 | 13 | 10 | 0.0 | 1.6 | 0.00 | 0.15 | 0.03 | 87 | 1013.6 |
| 20260906134506 | -17 | 0.0 | 0.0 | 0.00 | 0.15 | 0.03 | 1013.5 | ||
| 20260906133002 | -17 | 0.0 | 0.0 | 0.00 | 0.15 | 0.03 | 1013.4 | ||
| 20260906131600 | -17 | 0.0 | 0.0 | 0.00 | 0.15 | 0.03 | 1013.5 | ||
| 20260906130106 | -17 | 0.0 | 0.0 | 0.00 | 0.15 | 0.03 | 1013.7 | ||
| 20260906124606 | -17 | 0.0 | 0.0 | 0.00 | 0.15 | 0.03 | 1013.6 | ||
| 20260906123053 | -17 | 0.0 | 0.0 | 0.00 | 0.15 | 0.03 | 1013.7 | ||
| 20260906121550 | -17 | 0.0 | 0.0 | 0.00 | 0.15 | 0.03 | 1013.9 | ||
| 20260906120048 | 12 | 16 | 0.0 | 0.0 | 0.00 | 0.15 | 0.03 | 87 | 1014.2 |
| 20260906114549 | 12 | 15 | 0.0 | 8.0 | 0.00 | 0.15 | 0.03 | 87 | 1014.3 |
| 20260906113046 | 12 | 31 | 0.0 | 0.0 | 0.00 | 0.15 | 0.03 | 87 | 1014.2 |
| 20260906111558 | 12 | 31 | 1.6 | 14.5 | 0.00 | 0.15 | 0.03 | 87 | 1014.0 |
| 20260906110044 | 12 | 355 | 0.0 | 4.8 | 0.00 | 0.15 | 0.03 | 87 | 1014.0 |
| 20260906104543 | 12 | 19 | 0.0 | 4.8 | 0.00 | 0.15 | 0.03 | 87 | 1014.1 |
| 20260906103043 | 12 | 15 | 3.2 | 12.9 | 0.00 | 0.15 | 0.03 | 87 | 1014.3 |
| 20260906101543 | 12 | 355 | 0.0 | 8.0 | 0.00 | 0.15 | 0.03 | 87 | 1014.3 |
| 20260906100043 | 12 | 360 | 0.0 | 4.8 | 0.00 | 0.15 | 0.03 | 87 | 1014.3 |
| 20260906094540 | 12 | 10 | 0.0 | 8.0 | 0.00 | 0.15 | 0.03 | 87 | 1014.3 |
| 20260906093048 | 12 | 330 | 0.0 | 9.7 | 0.00 | 0.15 | 0.03 | 87 | 1014.8 |
| 20260906091536 | 12 | 20 | 0.0 | 8.0 | 0.00 | 0.15 | 0.03 | 87 | 1015.1 |
| 20260906090038 | 12 | 5 | 0.0 | 14.5 | 0.03 | 0.15 | 0.03 | 87 | 1015.1 |
| 20260906084534 | 12 | 17 | 0.0 | 12.9 | 0.03 | 0.15 | 0.03 | 87 | 1015.2 |
| 20260906083033 | 12 | 20 | 3.2 | 16.1 | 0.03 | 0.15 | 0.03 | 87 | 1015.1 |
| 20260906081546 | 12 | 349 | 0.0 | 16.1 | 0.03 | 0.15 | 0.03 | 87 | 1015.2 |
| 20260906080032 | 12 | 10 | 0.0 | 8.0 | 0.00 | 0.13 | 0.00 | 87 | 1015.2 |
| 20260906074531 | 12 | 21 | 1.6 | 17.7 | 0.00 | 0.13 | 0.00 | 87 | 1015.2 |
| 20260906073045 | 12 | 340 | 0.0 | 9.7 | 0.00 | 0.13 | 0.00 | 87 | 1015.3 |
| 20260906071527 | 12 | 351 | 0.0 | 14.5 | 0.00 | 0.13 | 0.00 | 87 | 1015.6 |
| 20260906070036 | 13 | 17 | 6.4 | 17.7 | 0.00 | 0.13 | 0.00 | 87 | 1015.7 |
| 20260906064522 | 13 | 31 | 4.8 | 19.3 | 0.00 | 0.13 | 0.00 | 86 | 1016.1 |
| 20260906063022 | 13 | 25 | 6.4 | 20.9 | 0.00 | 0.13 | 0.00 | 87 | 1016.0 |
| 20260906061519 | 13 | 360 | 0.0 | 6.4 | 0.00 | 0.13 | 0.00 | 87 | 1016.2 |
| 20260906060017 | 12 | 360 | 0.0 | 12.9 | 0.00 | 0.13 | 0.13 | 87 | 1015.9 |
| 20260906054521 | 12 | 10 | 0.0 | 1.6 | 0.00 | 0.13 | 0.13 | 87 | 1015.9 |
| 20260906053015 | 12 | 15 | 1.6 | 17.7 | 0.00 | 0.13 | 0.13 | 86 | 1015.8 |
| 20260906051520 | 12 | 25 | 1.6 | 17.7 | 0.00 | 0.13 | 0.13 | 86 | 1015.9 |
| 20260906050014 | 12 | 329 | 0.0 | 3.2 | 0.03 | 0.13 | 0.13 | 86 | 1016.0 |
| 20260906044513 | 12 | 350 | 0.0 | 12.9 | 0.08 | 0.13 | 0.13 | 86 | 1015.2 |
| 20260906043016 | 12 | 351 | 0.0 | 1.6 | 0.08 | 0.13 | 0.13 | 86 | 1015.2 |
| 20260906041513 | 13 | 5 | 0.0 | 19.3 | 0.08 | 0.13 | 0.13 | 85 | 1015.1 |
| 20260906040012 | 13 | 16 | 8.0 | 22.5 | 0.05 | 0.10 | 0.10 | 82 | 1015.3 |
| 20260906034512 | 14 | 295 | 0.0 | 8.0 | 0.00 | 0.05 | 0.05 | 77 | 1017.1 |
| 20260906033006 | 13 | 360 | 0.0 | 12.9 | 0.00 | 0.05 | 0.05 | 77 | 1015.2 |
| 20260906031504 | 13 | 19 | 1.6 | 8.0 | 0.00 | 0.05 | 0.05 | 77 | 1015.0 |
| 20260906030002 | 13 | 22 | 0.0 | 9.7 | 0.00 | 0.05 | 0.05 | 77 | 1014.4 |
| 20260906024502 | 13 | 20 | 4.8 | 12.9 | 0.00 | 0.05 | 0.05 | 75 | 1014.2 |
| 20260906023130 | 13 | 20 | 8.0 | 17.7 | 0.00 | 0.05 | 0.05 | 74 | 1014.1 |
| 20260906021600 | 14 | 21 | 9.7 | 16.1 | 0.00 | 0.05 | 0.05 | 72 | 1014.0 |
| 20260906020059 | 15 | 20 | 8.0 | 20.9 | 0.00 | 0.05 | 0.05 | 71 | 1014.1 |
| 20260906014623 | 15 | 31 | 12.9 | 20.9 | 0.00 | 0.05 | 0.05 | 70 | 1014.0 |
| 20260906013100 | 16 | 21 | 4.8 | 16.1 | 0.00 | 0.05 | 0.05 | 68 | 1013.6 |
| 20260906011559 | 16 | 20 | 8.0 | 16.1 | 0.00 | 0.05 | 0.05 | 68 | 1013.4 |
| 20260906010057 | 16 | 20 | 4.8 | 17.7 | 0.00 | 0.05 | 0.05 | 66 | 1013.4 |
| 20260906004609 | 17 | 24 | 9.7 | 20.9 | 0.00 | 0.05 | 0.05 | 63 | 1013.5 |
| 20260906003058 | 17 | 360 | 6.4 | 20.9 | 0.00 | 0.05 | 0.05 | 63 | 1013.3 |
| 20260906001556 | 18 | 32 | 6.4 | 22.5 | 0.00 | 0.05 | 0.05 | 63 | 1013.5 |
| 20260906000106 | 18 | 17 | 4.8 | 16.1 | 0.00 | 0.05 | 0.05 | 61 | 1013.4 |
| 20260905234600 | 18 | 348 | 1.6 | 19.3 | 0.00 | 0.05 | 0.05 | 62 | 1013.5 |
| 20260905233057 | 18 | 19 | 8.0 | 19.3 | 0.00 | 0.05 | 0.05 | 61 | 1013.5 |
| 20260905231555 | 18 | 23 | 11.3 | 19.3 | 0.00 | 0.05 | 0.05 | 59 | 1013.3 |
| 20260905230053 | 19 | 14 | 3.2 | 17.7 | 0.00 | 0.05 | 0.05 | 60 | 1013.2 |